• MPC Preparation (Info)

  • MPEC 2019-M10 : 2019 LV4

    The following Minor Planet Electronic Circular may be linked-to from your own Web pages, but must not otherwise be redistributed electronically.

    A form allowing access to any MPEC is at the bottom of this page.


    Read MPEC 2019-M09 Read MPEC 2019-M11


    M.P.E.C. 2019-M10                                Issued 2019 June 17, 11:11 UT  
    
         The Minor Planet Electronic Circulars contain information on unusual
             minor planets and routine data on comets.  They are published
        on behalf of Division F of the International Astronomical Union by the
              Minor Planet Center, Smithsonian Astrophysical Observatory,
                              Cambridge, MA 02138, U.S.A.
    
                 Prepared using the Tamkin Foundation Computer Network
    
                                  MPC@CFA.HARVARD.EDU
                URL https://www.minorplanetcenter.net/    ISSN 1523-6714
    
                                    2019 LV4                                 
    
    Observations:
         K19L04V  C2019 05 26.31044914 25 26.571-28 29 42.61         22.0 GVEM010F51
         K19L04V  C2019 05 26.32141814 25 25.484-28 29 05.33         22.4 GVEM010F51
         K19L04V  C2019 05 26.33238814 25 24.436-28 28 28.64         22.0 GVEM010F51
         K19L04V* C2019 06 05.24903 14 08 38.17 +01 42 39.6          19.8 GVEM010G96
         K19L04V  C2019 06 05.25474 14 08 36.28 +01 45 37.8          20.3 GVEM010G96
         K19L04V  C2019 06 05.26044 14 08 34.42 +01 48 37.0                VEM010G96
         K19L04V  C2019 06 05.26613 14 08 32.58 +01 51 33.8          20.1 GVEM010G96
         K19L04V  C2019 06 05.33832 14 08 10.09 +02 29 33.6          19.1 GVEM010I52
         K19L04V  C2019 06 05.33943 14 08 09.77 +02 30 09.7          19.4 GVEM010I52
         K19L04V  C2019 06 05.34054 14 08 09.46 +02 30 45.1          18.9 GVEM010I52
         K19L04V  C2019 06 05.34165 14 08 09.10 +02 31 20.3          19.4 GVEM010I52
         K19L04V KC2019 06 05.86697 14 06 07.90 +07 35 32.8          20.3 GVEM010104
         K19L04V KC2019 06 05.87280 14 06 05.73 +07 39 12.7          20.4 GVEM010104
         K19L04V pC2019 06 05.87712114 06 03.42 +07 41 51.8          19.7 GVEM010L01
         K19L04V KC2019 06 05.87862 14 06 03.56 +07 42 53.6          20.6 GVEM010104
         K19L04V  C2019 06 05.91576 14 05 49.15 +08 06 11.1                VEM010246
         K19L04V  C2019 06 05.91590 14 05 49.26 +08 06 12.2                VEM010246
         K19L04V KC2019 06 05.91655514 05 56.902+08 08 18.25         20.0 GVEM010J04
         K19L04V KC2019 06 05.91720014 05 56.638+08 08 43.26         19.7 GVEM010J04
         K19L04V KC2019 06 05.91784214 05 56.360+08 09 07.96         19.9 GVEM010J04
         K19L04V pC2019 06 05.97413914 05 27.95 +08 43 54.0          20.1 GVEM010L01
         K19L04V  C2019 06 06.15117 14 04 51.30 +10 43 31.9          19.9 GVEM010I52
         K19L04V  C2019 06 06.15306 14 04 50.49 +10 44 49.7          19.9 GVEM010I52
         K19L04V  C2019 06 06.15400 14 04 50.10 +10 45 28.7          19.7 GVEM010I52
         K19L04V KC2019 06 06.90139 14 00 15.82 +20 18 03.2          19.2 GVEM010K87
         K19L04V KC2019 06 06.90156 14 00 15.79 +20 18 12.7          20.0 GVEM010K87
         K19L04V KC2019 06 06.91342 14 00 09.66 +20 28 16.4          19.8 GVEM010K87
         K19L04V KC2019 06 07.01854 13 59 15.89 +21 59 51.7          20.1 GVEM010Z84
         K19L04V KC2019 06 07.02226 13 59 13.98 +22 03 05.8          19.4 GVEM010Z84
         K19L04V KC2019 06 07.02599 13 59 11.98 +22 06 19.3          20.1 GVEM010Z84
         K19L04V  C2019 06 07.15694 13 58 34.07 +24 04 16.8          20.4 GVEM010I52
         K19L04V  C2019 06 07.15774 13 58 33.60 +24 04 59.2                VEM010I52
         K19L04V  C2019 06 07.15853 13 58 33.19 +24 05 41.8          20.4 GVEM010I52
         K19L04V  C2019 06 07.15931 13 58 32.69 +24 06 25.1          20.4 GVEM010I52
         K19L04V  C2019 06 07.36894113 56 37.477+27 21 58.92         19.7 GVEM010F52
         K19L04V  C2019 06 07.39218513 56 21.900+27 43 54.00         19.5 GVEM010F52
         K19L04V  C2019 06 08.16166 13 48 31.32 +40 43 55.7          19.9 GVEM010I52
         K19L04V  C2019 06 08.16523 13 48 27.82 +40 47 43.1          19.8 GVEM010I52
         K19L04V  C2019 06 08.16880 13 48 24.36 +40 51 31.0          19.9 GVEM010I52
         K19L04V KC2019 06 08.93881513 35 03.51 +54 32 44.6          20.6 GVEM010J95
         K19L04V KC2019 06 08.94763713 34 50.26 +54 41 55.9          20.7 GVEM010J95
         K19L04V KC2019 06 08.95571413 34 38.13 +54 50 20.7          20.8 GVEM010J95
    
    Observer details:
    104 San Marcello Pistoiese.  Observers P. Bacci, M. Maestripieri.  
        0.60-m reflector + CCD.
    246 Klet Observatory-KLENOT.  Observers M. Tichy, J. Ticha.  
        1.06-m f/2.7 reflector + 2048x2048 CCD.
    F51 Pan-STARRS 1, Haleakala.  Observers J. Bulger, K. Chambers, T. Lowe,
        E. Magnier, A. Schultz, M. Willman.  1.8-m Ritchey-Chretien + CCD.
    F52 Pan-STARRS 2, Haleakala.  Observers J. Bulger, K. Chambers, T. Dukes,
        T. Lowe, E. Magnier, A. Schultz, , M. Willman.  
        1.8-m Ritchey-Chretien + CCD.
    G96 Mt. Lemmon Survey.  Observer T. A. Pruyne.  1.5-m reflector + 10K CCD.
    I52 Steward Observatory, Mt. Lemmon Station.  Observers E. J. Christensen,
        B. M. Africano.  1.0-m reflector + CCD.
    J04 ESA Optical Ground Station, Tenerife.  Observer P. Ruiz.  
        1.0-m f/4.4 reflector + CCD.
    J95 Great Shefford.  Observer P. Birtwhistle.  
        0.41-m f/6.3 Schmidt-Cassegrain + CCD.
    K87 Dettelbach Vineyard Observatory.  Observer B. Haeusler.  
        0.30-m Schmidt-Cassegrain + CCD.
    L01 Visnjan Observatory, Tican.  Observer K. Korlevic.  
        1.0-m f/2.9 reflector + CCD.
    Z84 Calar Alto-Schmidt.  Observer E. Schwab.  0.8-m f/3 Schmidt + CCD.
    
    Orbital elements:
    2019 LV4                                                 Earth MOID = 0.0159 AU
    Epoch 2019 Apr. 27.0 TT = JDT 2458600.5                 MPC
    M 330.98379              (2000.0)            P               Q
    n   0.37407971     Peri.   51.60543     +0.51873902     +0.84344105
    a   1.9076262      Node   250.19172     -0.82337672     +0.44889037
    e   0.5205718      Incl.    8.53938     -0.23013172     +0.29513494
    P   2.63           H   26.1           G   0.15           U   6
    Residuals in seconds of arc
    190526 F51  0.3+  0.1-    190605 104  0.1+  0.6-    190607 Z84  0.6+  0.7+
    190526 F51  0.1-  0.3+    190605 246 (3.7-  4.3+)   190607 Z84  0.1-  0.1+
    190526 F51  0.3+  0.2-    190605 246  1.3-  0.1+    190607 I52  0.8-  0.7+
    190605 G96  0.7+  0.0     190605 J04  0.2+  0.1-    190607 I52  0.6-  0.5-
    190605 G96  0.1+  0.5+    190605 J04  0.1+  0.1+    190607 I52  0.3+  0.9-
    190605 G96  0.2-  1.9+    190605 J04  0.2-  0.2+    190607 I52  0.0   0.1-
    190605 G96  0.4-  1.0+    190605 L01  0.3+  0.3+    190607 F52  0.1+  0.3+
    190605 I52  0.6-  0.8-    190606 I52  0.2+  0.1-    190607 F52  0.1-  0.8+
    190605 I52  0.4-  0.1-    190606 I52  0.0   0.4-    190608 I52  0.1-  0.2+
    190605 I52  0.1-  0.2-    190606 I52  0.1+  0.3-    190608 I52  0.3-  0.2-
    190605 I52  0.5-  0.5-    190606 K87  0.5-  0.6-    190608 I52  0.0   0.0
    190605 104  0.0   0.8-    190606 K87  0.3+  0.2+    190608 J95  0.0   0.7+
    190605 104  0.1+  1.2-    190606 K87  0.3-  0.4+    190608 J95  0.1+  0.3-
    190605 L01  0.4+  0.1+    190607 Z84  0.1+  0.1+    190608 J95  0.5+  0.3-
    
    Ephemeris:
    2019 LV4                 a,e,i = 1.91, 0.52, 9                   q = 0.9146
    Date    TT    R. A. (2000) Decl.     Delta      r    Elong.  Phase     V
    2019 05 18    14 31 58.6 -33 13 26   0.1497  1.1531   160.0    17.5    23.2
    ...
    2019 06 02    14 17 06.0 -16 12 55   0.04862 1.0550   146.4    32.1    21.0
    ...
    2019 06 10    12 55 25.4 +71 38 59   0.02318 1.0098    76.0   102.7    21.7
    ...
    2019 06 16    03 00 19.8 +63 57 22   0.05389 0.9805    47.9   129.7    25.4
    2019 06 17    02 55 40.2 +61 28 38   0.06011 0.9760    47.2   130.2    25.7
    2019 06 18    02 52 33.5 +59 26 46   0.06643 0.9717    46.8   130.3    25.9
    ...
    2019 06 24    02 46 41.1 +52 17 21   0.1056  0.9487    47.8   127.5    26.6
    ...
    2019 07 02    02 50 10.1 +48 02 49   0.1592  0.9267    51.8   120.4    26.8
    ...
    2019 07 17    03 08 21.3 +44 28 41   0.2594  0.9158    60.2   105.5    26.9
    
    A. U. Tomatic                (C) Copyright 2019 MPC           M.P.E.C. 2019-M10
    


    Read MPEC 2019-M09 Read MPEC 2019-M11


    MPEC number:

    Enter an MPEC number in one of the following forms:

    • 1997-B01 (the full form)
    • J97B01 (the packed version of the full form)
    • B01 (the abbreviated form)